Regional Weather Roundup
Issued by NWS

Home | Current Version | Previous Version | Text Only | Print | Product List | Glossary On
Versions: 1 2 3 4 5 6 7 8 9 10 11 12 13 14 15 16 17 18 19 20 21 22 23 24 25 26 27
000
ASUS45 KREV 271810
RWRNV
NEVADA REGIONAL WEATHER ROUNDUP
NATIONAL WEATHER SERVICE RENO NV
1100 AM PDT FRI MAY 27 2016

NOTE: "FAIR" INDICATES FEW OR NO CLOUDS BELOW 12,000 FEET WITH NO
SIGNIFICANT WEATHER AND/OR OBSTRUCTIONS TO VISIBILITY.

NVZ001-003-004-271900-
WESTERN NEVADA

CITY           SKY/WX    TMP DP  RH WIND       PRES   REMARKS
RENO           MOSUNNY   68  34  28 VRB5      30.04F
6HR MIN TEMP:  49; 6HR MAX TEMP:  68;

CARSON CITY    FAIR      64  36  34 N5        30.06S
MINDEN         FAIR      64  36  34 E3        30.05F
SLIDE MTN        N/A     41  32  70 SE8         N/A
FALLON         MOSUNNY   70  30  22 VRB7      30.01F
6HR MIN TEMP:  51; 6HR MAX TEMP:  70;

LOVELOCK       SUNNY     70  29  21 W12       30.00F
6HR MIN TEMP:  45; 6HR MAX TEMP:  71;

HAWTHORNE      SUNNY     66  30  26 CALM      30.03F
$$

NVZ002-CAZ072-073-271900-
NORTHERN AND CENTRAL SIERRA

CITY           SKY/WX    TMP DP  RH WIND       PRES   REMARKS
S. LAKE TAHOE  SUNNY     59  41  51 NE9       30.08F
6HR MIN TEMP:  34; 6HR MAX TEMP:  59;

TRUCKEE        MOSUNNY   57  39  51 NE3       30.10F
SQUAW VLY 8000 NOT AVBL
SUSANVILLE     SUNNY     63  32  31 N3        30.06F
BLUE CANYON    SUNNY     61  32  33 NW7       30.09S
MAMMOTH LAKES  FAIR      59  32  35 SE6       30.13F
6HR MIN TEMP:  33; 6HR MAX TEMP:  60;

BRIDGEPORT     FAIR      61  29  29 S5        30.06F
$$

NVZ030-031-036-271900-
NORTHERN NEVADA

CITY           SKY/WX    TMP DP  RH WIND       PRES   REMARKS
ELKO           SUNNY     63  39  41 SW14      29.99F
6HR MIN TEMP:  42; 6HR MAX TEMP:  64;

WINNEMUCCA     SUNNY     65  31  28 SW10      30.01F
6HR MIN TEMP:  32; 6HR MAX TEMP:  65;

WENDOVER       PTSUNNY   66  36  32 SE8       29.96S
$$

NVZ035-037-271900-
CENTRAL NEVADA

CITY           SKY/WX    TMP DP  RH WIND       PRES   REMARKS
ELY            CLOUDY    59  29  31 CALM      30.05S
6HR MIN TEMP:  33; 6HR MAX TEMP:  60;

EUREKA           N/A     62  32  32 W8G22     30.03F
6HR MIN TEMP:  39; 6HR MAX TEMP:  63;

$$

NVZ013-014-271900-
SOUTH CENTRAL NEVADA

CITY           SKY/WX    TMP DP  RH WIND       PRES   REMARKS
TONOPAH        MOSUNNY   67  30  25 W9        30.04F
6HR MIN TEMP:  43; 6HR MAX TEMP:  68;

$$

NVZ017-020-022-271900-
SOUTHERN NEVADA

CITY           SKY/WX    TMP DP  RH WIND       PRES   REMARKS
LAS VEGAS      MOSUNNY   82  32  16 W3        29.85F
6HR MIN TEMP:  68; 6HR MAX TEMP:  83;

N. LAS VEGAS   SUNNY     80  34  19 CALM      29.88F
6HR MIN TEMP:  65; 6HR MAX TEMP:  80;

NELLIS AFB     SUNNY     81  37  20 CALM      29.86F
6HR MIN TEMP:  65; 6HR MAX TEMP:  81;

HENDERSON      SUNNY     79  35  20 CALM      29.91F
6HR MIN TEMP:  64; 6HR MAX TEMP:  81;

MERCURY        SUNNY     77  33  20 VRB3      29.93F
6HR MIN TEMP:  52; 6HR MAX TEMP:  78;

$$




USA.gov is the U.S. government's official web portal to all federal, state and local government web resources and services.